Location: Trois-Rivi�res
(46.3500°N, 72.5500°W)
Time: 23:54:20
(UTC-04:00)

Tiangong 1 - Pass Details

Date: 07 October 2017
Orbit: 294 x 321 km, 42.8° (Epoch: 16 October)

Event Time Altitude Azimuth Distance (km) Brightness Sun altitude
Rises 20:21:57 0° 255° (WSW) 2,029 5.7 -22.1°
Reaches altitude 10° 20:24:00 10° 246° (WSW) 1,195 4.2 -22.4°
Enters shadow 20:24:44 16° 239° (WSW) 917 3.4 -22.5°
